Time,TemperatureF,DewpointF,PressureIn,WindDirection,WindDirectionDegrees,WindSpeedMPH,WindSpeedGustMPH,Humidity,HourlyPrecipIn,Conditions,Clouds,dailyrainin,SoftwareType,DateUTC
2013-05-22 00:01:00,69.1,66.9,29.94,West,270,0.0,0.0,93,0.00,,,0.00,meteohub,2013-05-22 04:01:00,
2013-05-22 00:02:00,69.1,66.9,29.94,West,270,0.0,0.0,93,0.00,,,0.00,meteohub,2013-05-22 04:02:00,
2013-05-22 00:04:00,69.1,66.9,29.94,West,269,0.0,0.0,93,0.00,,,0.00,meteohub,2013-05-22 04:04:00,
2013-05-22 00:09:00,69.1,66.9,29.94,West,269,0.0,0.0,93,0.00,,,0.00,meteohub,2013-05-22 04:09:00,
2013-05-22 00:14:00,69.1,66.9,29.94,West,269,0.0,0.0,93,0.00,,,0.00,meteohub,2013-05-22 04:14:00,
2013-05-22 00:19:00,69.1,66.9,29.94,West,276,1.0,0.0,93,0.00,,,0.00,meteohub,2013-05-22 04:19:00,
2013-05-22 00:24:00,69.1,66.9,29.94,West,276,0.0,2.0,93,0.00,,,0.00,meteohub,2013-05-22 04:24:00,
2013-05-22 00:29:00,69.1,66.9,29.94,SW,228,0.0,2.0,93,0.00,,,0.00,meteohub,2013-05-22 04:29:00,
2013-05-22 00:34:00,69.3,67.1,29.94,South,172,0.0,2.0,93,0.00,,,0.00,meteohub,2013-05-22 04:34:00,
2013-05-22 00:39:00,69.3,67.1,29.94,South,172,0.0,1.0,93,0.00,,,0.00,meteohub,2013-05-22 04:39:00,
2013-05-22 00:44:00,69.3,67.1,29.94,South,172,0.0,2.0,93,0.00,,,0.00,meteohub,2013-05-22 04:44:00,
2013-05-22 00:49:00,69.1,66.9,29.94,South,172,0.0,2.0,93,0.00,,,0.00,meteohub,2013-05-22 04:49:00,
2013-05-22 00:54:00,69.1,66.9,29.94,South,172,0.0,0.0,93,0.00,,,0.00,meteohub,2013-05-22 04:54:00,
2013-05-22 00:59:00,69.1,66.9,29.94,West,263,0.0,0.0,93,0.00,,,0.00,meteohub,2013-05-22 04:59:00,
2013-05-22 01:04:00,69.1,66.9,29.94,West,262,0.0,1.0,93,0.00,,,0.00,meteohub,2013-05-22 05:04:00,
2013-05-22 01:09:00,69.1,66.9,29.94,West,263,0.0,1.0,93,0.00,,,0.00,meteohub,2013-05-22 05:09:00,
2013-05-22 01:14:00,69.1,66.9,29.94,West,263,0.0,1.0,93,0.00,,,0.00,meteohub,2013-05-22 05:14:00,
2013-05-22 01:20:00,68.9,66.7,29.94,South,184,0.0,0.0,93,0.00,,,0.00,meteohub,2013-05-22 05:20:00,
2013-05-22 01:25:00,68.9,66.7,29.94,South,185,0.0,0.0,93,0.00,,,0.00,meteohub,2013-05-22 05:25:00,
2013-05-22 01:30:00,68.7,66.6,29.94,South,184,0.0,0.0,93,0.00,,,0.00,meteohub,2013-05-22 05:30:00,
2013-05-22 01:35:00,68.7,66.9,29.94,SW,217,0.0,0.0,94,0.00,,,0.00,meteohub,2013-05-22 05:35:00,
2013-05-22 01:40:00,68.7,66.9,29.94,SW,217,0.0,0.0,94,0.00,,,0.00,meteohub,2013-05-22 05:40:00,
2013-05-22 01:45:00,68.5,66.7,29.94,SW,217,0.0,0.0,94,0.00,,,0.00,meteohub,2013-05-22 05:45:00,
2013-05-22 01:50:00,68.5,66.7,29.93,West,263,0.0,1.0,94,0.00,,,0.00,meteohub,2013-05-22 05:50:00,
2013-05-22 01:55:00,68.5,66.7,29.93,South,173,0.0,1.0,94,0.00,,,0.00,meteohub,2013-05-22 05:55:00,
2013-05-22 02:00:00,68.5,66.7,29.93,WSW,255,0.0,1.0,94,0.00,,,0.00,meteohub,2013-05-22 06:00:00,
2013-05-22 02:05:00,68.5,66.7,29.93,WSW,255,0.0,0.0,94,0.00,,,0.00,meteohub,2013-05-22 06:05:00,
2013-05-22 02:10:00,68.5,66.7,29.93,WNW,290,1.0,0.0,94,0.00,,,0.00,meteohub,2013-05-22 06:10:00,
2013-05-22 02:15:00,68.5,66.7,29.92,WSW,253,0.0,1.0,94,0.00,,,0.00,meteohub,2013-05-22 06:15:00,
2013-05-22 02:20:00,68.5,66.7,29.92,South,169,0.0,2.0,94,0.00,,,0.00,meteohub,2013-05-22 06:20:00,
2013-05-22 02:25:00,68.5,66.7,29.92,SSW,211,0.0,2.0,94,0.00,,,0.00,meteohub,2013-05-22 06:25:00,
2013-05-22 02:30:00,68.5,66.7,29.92,SSW,211,0.0,2.0,94,0.00,,,0.00,meteohub,2013-05-22 06:30:00,
2013-05-22 02:35:00,68.5,66.7,29.92,SW,236,0.0,1.0,94,0.00,,,0.00,meteohub,2013-05-22 06:35:00,
2013-05-22 02:40:00,68.5,66.7,29.92,WSW,252,0.0,1.0,94,0.00,,,0.00,meteohub,2013-05-22 06:40:00,
2013-05-22 02:46:00,68.5,66.7,29.92,SW,228,0.0,1.0,94,0.00,,,0.00,meteohub,2013-05-22 06:46:00,
2013-05-22 02:51:00,68.5,66.7,29.92,SW,222,0.0,0.0,94,0.00,,,0.00,meteohub,2013-05-22 06:51:00,
2013-05-22 02:56:00,68.4,66.6,29.92,SW,222,0.0,0.0,94,0.00,,,0.00,meteohub,2013-05-22 06:56:00,
2013-05-22 03:01:00,68.4,66.9,29.92,SW,223,0.0,0.0,95,0.00,,,0.00,meteohub,2013-05-22 07:01:00,
2013-05-22 03:06:00,68.2,66.7,29.92,SW,222,0.0,0.0,95,0.00,,,0.00,meteohub,2013-05-22 07:06:00,
2013-05-22 03:11:00,67.8,66.4,29.93,SW,222,0.0,0.0,95,0.00,,,0.00,meteohub,2013-05-22 07:11:00,
2013-05-22 03:16:00,67.6,66.2,29.92,SW,222,0.0,0.0,95,0.00,,,0.00,meteohub,2013-05-22 07:16:00,
2013-05-22 03:21:00,67.5,66.0,29.92,SW,222,0.0,0.0,95,0.00,,,0.00,meteohub,2013-05-22 07:21:00,
2013-05-22 03:26:00,67.3,65.8,29.92,SW,221,0.0,0.0,95,0.00,,,0.00,meteohub,2013-05-22 07:26:00,
2013-05-22 03:31:00,67.1,65.7,29.92,SW,223,0.0,0.0,95,0.00,,,0.00,meteohub,2013-05-22 07:31:00,
2013-05-22 03:36:00,66.7,65.3,29.92,SW,222,0.0,0.0,95,0.00,,,0.00,meteohub,2013-05-22 07:36:00,
2013-05-22 03:41:00,66.6,65.1,29.92,SW,222,0.0,0.0,95,0.00,,,0.00,meteohub,2013-05-22 07:41:00,
2013-05-22 03:46:00,66.4,64.9,29.92,SW,222,0.0,0.0,95,0.00,,,0.00,meteohub,2013-05-22 07:46:00,
2013-05-22 03:51:00,66.2,64.9,29.92,SW,222,0.0,0.0,96,0.00,,,0.00,meteohub,2013-05-22 07:51:00,
2013-05-22 03:56:00,66.2,64.9,29.91,SW,222,0.0,0.0,96,0.00,,,0.00,meteohub,2013-05-22 07:56:00,
2013-05-22 04:01:00,66.0,64.8,29.91,SW,222,0.0,0.0,96,0.00,,,0.00,meteohub,2013-05-22 08:01:00,
2013-05-22 04:07:00,65.7,64.4,29.91,SW,222,0.0,0.0,96,0.00,,,0.00,meteohub,2013-05-22 08:07:00,
2013-05-22 04:12:00,65.5,64.2,29.91,SW,222,0.0,0.0,96,0.00,,,0.00,meteohub,2013-05-22 08:12:00,
2013-05-22 04:17:00,65.3,64.0,29.91,SW,222,0.0,0.0,96,0.00,,,0.00,meteohub,2013-05-22 08:17:00,
2013-05-22 04:22:00,65.1,64.0,29.91,SW,222,0.0,0.0,96,0.00,,,0.00,meteohub,2013-05-22 08:22:00,
2013-05-22 04:27:00,64.9,63.9,29.91,SW,222,0.0,0.0,96,0.00,,,0.00,meteohub,2013-05-22 08:27:00,
2013-05-22 04:32:00,64.9,64.0,29.91,SW,222,0.0,0.0,97,0.00,,,0.00,meteohub,2013-05-22 08:32:00,
2013-05-22 04:37:00,64.9,64.0,29.92,SW,222,0.0,0.0,97,0.00,,,0.00,meteohub,2013-05-22 08:37:00,
2013-05-22 04:42:00,64.8,63.9,29.92,SW,222,0.0,0.0,97,0.00,,,0.00,meteohub,2013-05-22 08:42:00,
2013-05-22 04:47:00,64.6,63.7,29.92,SW,222,0.0,0.0,97,0.00,,,0.00,meteohub,2013-05-22 08:47:00,
2013-05-22 04:52:00,64.4,63.5,29.92,SW,221,0.0,0.0,97,0.00,,,0.00,meteohub,2013-05-22 08:52:00,
2013-05-22 04:57:00,64.6,63.7,29.92,SW,222,0.0,0.0,97,0.00,,,0.00,meteohub,2013-05-22 08:57:00,
2013-05-22 05:02:00,64.8,63.9,29.92,SW,222,0.0,0.0,97,0.00,,,0.00,meteohub,2013-05-22 09:02:00,
2013-05-22 05:07:00,64.8,63.9,29.92,SW,221,0.0,0.0,97,0.00,,,0.00,meteohub,2013-05-22 09:07:00,
2013-05-22 05:12:00,64.8,63.9,29.92,SW,222,0.0,0.0,97,0.00,,,0.00,meteohub,2013-05-22 09:12:00,
2013-05-22 05:17:00,64.6,63.7,29.92,SW,222,0.0,0.0,97,0.00,,,0.00,meteohub,2013-05-22 09:17:00,
2013-05-22 05:22:00,64.4,63.5,29.92,SW,222,0.0,0.0,97,0.00,,,0.00,meteohub,2013-05-22 09:22:00,
2013-05-22 05:27:00,64.2,63.3,29.92,SW,222,0.0,0.0,97,0.00,,,0.00,meteohub,2013-05-22 09:27:00,
2013-05-22 05:32:00,64.2,63.3,29.92,SW,222,0.0,0.0,97,0.00,,,0.00,meteohub,2013-05-22 09:32:00,
2013-05-22 05:37:00,64.0,63.1,29.93,SW,222,0.0,0.0,97,0.00,,,0.00,meteohub,2013-05-22 09:37:00,
2013-05-22 05:42:00,63.9,63.0,29.92,SW,222,0.0,0.0,97,0.00,,,0.00,meteohub,2013-05-22 09:42:00,
2013-05-22 05:47:00,63.9,63.0,29.93,SW,222,0.0,0.0,97,0.00,,,0.00,meteohub,2013-05-22 09:47:00,
2013-05-22 05:52:00,63.7,62.8,29.93,SW,222,0.0,0.0,97,0.00,,,0.00,meteohub,2013-05-22 09:52:00,
2013-05-22 05:57:00,63.9,63.0,29.93,SW,221,0.0,0.0,97,0.00,,,0.00,meteohub,2013-05-22 09:57:00,
2013-05-22 06:02:00,63.7,62.8,29.93,SW,222,0.0,0.0,97,0.00,,,0.00,meteohub,2013-05-22 10:02:00,
2013-05-22 06:07:00,63.7,62.8,29.93,SW,222,0.0,0.0,97,0.00,,,0.00,meteohub,2013-05-22 10:07:00,
2013-05-22 06:12:00,63.7,63.1,29.93,SW,222,0.0,0.0,98,0.00,,,0.00,meteohub,2013-05-22 10:12:00,
2013-05-22 06:17:00,63.7,62.8,29.93,SW,222,0.0,0.0,97,0.00,,,0.00,meteohub,2013-05-22 10:17:00,
2013-05-22 06:22:00,63.7,62.8,29.93,SW,222,0.0,0.0,97,0.00,,,0.00,meteohub,2013-05-22 10:22:00,
2013-05-22 06:27:00,63.7,63.1,29.93,SW,222,0.0,0.0,98,0.00,,,0.00,meteohub,2013-05-22 10:27:00,
2013-05-22 06:32:00,64.0,63.5,29.94,SW,222,0.0,0.0,98,0.00,,,0.00,meteohub,2013-05-22 10:32:00,
2013-05-22 06:37:00,64.0,63.5,29.94,SW,222,0.0,0.0,98,0.00,,,0.00,meteohub,2013-05-22 10:37:00,
2013-05-22 06:42:00,64.2,63.7,29.95,SW,222,0.0,0.0,98,0.00,,,0.00,meteohub,2013-05-22 10:42:00,
2013-05-22 06:47:00,64.8,64.2,29.95,WSW,242,0.0,0.0,98,0.00,,,0.00,meteohub,2013-05-22 10:47:00,
2013-05-22 06:52:00,65.7,65.1,29.94,WSW,242,0.0,0.0,98,0.00,,,0.00,meteohub,2013-05-22 10:52:00,
2013-05-22 06:57:00,66.2,65.7,29.95,SSW,210,0.0,0.0,98,0.00,,,0.00,meteohub,2013-05-22 10:57:00,
2013-05-22 07:02:00,66.6,66.0,29.94,SSW,211,0.0,0.0,98,0.00,,,0.00,meteohub,2013-05-22 11:02:00,
2013-05-22 07:07:00,66.7,66.2,29.94,SSW,211,0.0,0.0,98,0.00,,,0.00,meteohub,2013-05-22 11:07:00,
2013-05-22 07:12:00,66.9,66.4,29.95,SW,219,0.0,0.0,98,0.00,,,0.00,meteohub,2013-05-22 11:12:00,
2013-05-22 07:17:00,67.3,66.7,29.95,SW,219,0.0,0.0,98,0.00,,,0.00,meteohub,2013-05-22 11:17:00,
2013-05-22 07:22:00,67.3,66.7,29.95,SW,220,0.0,0.0,98,0.00,,,0.00,meteohub,2013-05-22 11:22:00,
2013-05-22 07:27:00,67.6,67.1,29.95,SW,219,0.0,0.0,98,0.00,,,0.00,meteohub,2013-05-22 11:27:00,
2013-05-22 07:32:00,67.8,67.3,29.95,SW,226,0.0,0.0,98,0.00,,,0.00,meteohub,2013-05-22 11:32:00,
2013-05-22 07:37:00,68.2,67.6,29.94,SW,222,0.0,0.0,98,0.00,,,0.00,meteohub,2013-05-22 11:37:00,
2013-05-22 07:42:00,68.4,67.8,29.95,South,177,0.0,1.0,98,0.00,,,0.00,meteohub,2013-05-22 11:42:00,
2013-05-22 07:47:00,68.5,68.0,29.95,WSW,242,0.0,1.0,98,0.00,,,0.00,meteohub,2013-05-22 11:47:00,
2013-05-22 07:52:00,68.7,68.2,29.96,West,262,0.0,2.0,98,0.00,,,0.00,meteohub,2013-05-22 11:52:00,
2013-05-22 07:57:00,68.7,68.2,29.96,WSW,257,0.0,2.0,98,0.00,,,0.00,meteohub,2013-05-22 11:57:00,
2013-05-22 08:02:00,68.9,68.4,29.96,SE,127,0.0,2.0,98,0.00,,,0.00,meteohub,2013-05-22 12:02:00,
2013-05-22 08:07:00,69.1,68.5,29.96,SSE,147,0.0,2.0,98,0.00,,,0.00,meteohub,2013-05-22 12:07:00,
2013-05-22 08:12:00,69.3,68.7,29.96,SE,146,0.0,2.0,98,0.00,,,0.00,meteohub,2013-05-22 12:12:00,
2013-05-22 08:17:00,69.4,68.5,29.96,SE,146,0.0,2.0,97,0.00,,,0.00,meteohub,2013-05-22 12:17:00,
2013-05-22 08:22:00,69.6,68.7,29.96,SSE,153,0.0,0.0,97,0.00,,,0.00,meteohub,2013-05-22 12:22:00,
2013-05-22 08:27:00,69.8,68.9,29.96,SE,145,0.0,1.0,97,0.00,,,0.00,meteohub,2013-05-22 12:27:00,
2013-05-22 08:32:00,70.0,69.1,29.96,SSE,149,0.0,1.0,97,0.00,,,0.00,meteohub,2013-05-22 12:32:00,
2013-05-22 08:37:00,70.3,69.1,29.96,ESE,114,0.0,1.0,96,0.00,,,0.00,meteohub,2013-05-22 12:37:00,
2013-05-22 08:42:00,70.3,69.1,29.96,South,188,0.0,0.0,96,0.00,,,0.00,meteohub,2013-05-22 12:42:00,
2013-05-22 08:47:00,70.5,69.3,29.97,South,187,0.0,1.0,96,0.00,,,0.00,meteohub,2013-05-22 12:47:00,
2013-05-22 08:52:00,70.5,69.1,29.97,WSW,238,0.0,3.0,95,0.00,,,0.00,meteohub,2013-05-22 12:52:00,
2013-05-22 08:57:00,70.7,69.3,29.97,SSE,156,0.0,3.0,95,0.00,,,0.00,meteohub,2013-05-22 12:57:00,
2013-05-22 09:02:00,70.7,69.3,29.97,SE,141,0.0,3.0,95,0.00,,,0.00,meteohub,2013-05-22 13:02:00,
2013-05-22 09:07:00,70.9,69.4,29.97,SSE,165,0.0,2.0,95,0.00,,,0.00,meteohub,2013-05-22 13:07:00,
2013-05-22 09:12:00,70.9,69.4,29.97,ESE,120,0.0,2.0,95,0.00,,,0.00,meteohub,2013-05-22 13:12:00,
2013-05-22 09:17:00,71.1,69.3,29.97,SSE,151,0.0,2.0,94,0.00,,,0.00,meteohub,2013-05-22 13:17:00,
2013-05-22 09:22:00,71.1,69.3,29.97,SW,233,0.0,1.0,94,0.00,,,0.00,meteohub,2013-05-22 13:22:00,
2013-05-22 09:27:00,71.4,69.6,29.97,South,191,0.0,0.0,94,0.00,,,0.00,meteohub,2013-05-22 13:27:00,
2013-05-22 09:32:00,71.4,69.6,29.97,SE,127,0.0,0.0,94,0.00,,,0.00,meteohub,2013-05-22 13:32:00,
2013-05-22 09:37:00,71.4,69.3,29.97,ESE,114,1.0,2.0,93,0.00,,,0.00,meteohub,2013-05-22 13:37:00,
2013-05-22 09:42:00,71.6,69.4,29.97,SE,130,0.0,2.0,93,0.00,,,0.00,meteohub,2013-05-22 13:42:00,
2013-05-22 09:47:00,71.8,69.6,29.97,SSE,153,0.0,2.0,93,0.00,,,0.00,meteohub,2013-05-22 13:47:00,
2013-05-22 09:52:00,71.8,69.6,29.98,ESE,114,1.0,3.0,93,0.00,,,0.00,meteohub,2013-05-22 13:52:00,
2013-05-22 09:57:00,72.0,69.8,29.98,SSE,152,0.0,3.0,93,0.00,,,0.00,meteohub,2013-05-22 13:57:00,
2013-05-22 10:02:00,72.0,69.8,29.98,SSE,152,0.0,3.0,93,0.00,,,0.00,meteohub,2013-05-22 14:02:00,
2013-05-22 10:07:00,72.0,69.8,29.99,West,274,0.0,1.0,93,0.00,,,0.00,meteohub,2013-05-22 14:07:00,
2013-05-22 10:12:00,72.0,69.4,29.98,South,177,1.0,3.0,92,0.00,,,0.00,meteohub,2013-05-22 14:12:00,
2013-05-22 10:17:00,72.0,69.4,29.98,South,183,0.0,3.0,92,0.00,,,0.00,meteohub,2013-05-22 14:17:00,
2013-05-22 10:22:00,72.0,69.4,29.98,SSE,160,0.0,3.0,92,0.00,,,0.00,meteohub,2013-05-22 14:22:00,
2013-05-22 10:27:00,72.1,69.6,29.98,SSE,162,0.0,2.0,92,0.00,,,0.00,meteohub,2013-05-22 14:27:00,
2013-05-22 10:32:00,72.5,70.3,29.98,SSW,204,0.0,0.0,93,0.00,,,0.00,meteohub,2013-05-22 14:32:00,
2013-05-22 10:37:00,72.7,70.2,29.98,SE,124,0.0,0.0,92,0.00,,,0.00,meteohub,2013-05-22 14:37:00,
2013-05-22 10:42:00,72.7,70.2,29.98,South,183,2.0,3.0,92,0.00,,,0.00,meteohub,2013-05-22 14:42:00,
2013-05-22 10:47:00,72.7,70.2,29.98,SE,143,0.0,4.0,92,0.00,,,0.00,meteohub,2013-05-22 14:47:00,
2013-05-22 10:52:00,72.9,70.3,29.98,South,188,0.0,4.0,92,0.00,,,0.00,meteohub,2013-05-22 14:52:00,
2013-05-22 10:57:00,73.0,70.5,29.98,South,188,0.0,4.0,92,0.00,,,0.00,meteohub,2013-05-22 14:57:00,
2013-05-22 11:02:00,73.4,70.5,29.98,NNW,330,0.0,4.0,91,0.00,,,0.00,meteohub,2013-05-22 15:02:00,
2013-05-22 11:07:00,73.6,70.7,29.98,South,174,0.0,2.0,91,0.00,,,0.00,meteohub,2013-05-22 15:07:00,
2013-05-22 11:12:00,73.6,70.5,29.98,ESE,104,0.0,2.0,90,0.00,,,0.00,meteohub,2013-05-22 15:12:00,
2013-05-22 11:17:00,73.9,70.9,29.98,SSE,151,0.0,2.0,90,0.00,,,0.00,meteohub,2013-05-22 15:17:00,
2013-05-22 11:22:00,74.1,71.1,29.98,SE,141,0.0,1.0,90,0.00,,,0.00,meteohub,2013-05-22 15:22:00,
2013-05-22 11:27:00,74.5,71.1,29.98,SSE,167,0.0,2.0,89,0.00,,,0.00,meteohub,2013-05-22 15:27:00,
2013-05-22 11:32:00,75.0,71.6,29.98,SSE,166,0.0,2.0,89,0.00,,,0.00,meteohub,2013-05-22 15:32:00,
2013-05-22 11:37:00,75.2,71.1,29.98,SSW,195,1.0,3.0,87,0.00,,,0.00,meteohub,2013-05-22 15:37:00,
2013-05-22 11:42:00,75.2,71.1,29.98,South,177,0.0,3.0,87,0.00,,,0.00,meteohub,2013-05-22 15:42:00,
2013-05-22 11:47:00,75.4,71.6,29.97,SW,219,0.0,4.0,88,0.00,,,0.00,meteohub,2013-05-22 15:47:00,
2013-05-22 11:52:00,75.7,71.6,29.97,SE,139,0.0,4.0,87,0.00,,,0.00,meteohub,2013-05-22 15:52:00,
2013-05-22 11:57:00,76.3,71.8,29.96,SE,133,4.0,4.0,86,0.00,,,0.00,meteohub,2013-05-22 15:57:00,
2013-05-22 12:02:00,76.5,71.6,29.96,SE,129,2.0,4.0,85,0.00,,,0.00,meteohub,2013-05-22 16:02:00,
2013-05-22 12:07:00,77.2,72.0,29.96,SE,134,1.0,4.0,84,0.00,,,0.00,meteohub,2013-05-22 16:07:00,
2013-05-22 12:12:00,77.5,72.0,29.96,SSW,192,1.0,4.0,83,0.00,,,0.00,meteohub,2013-05-22 16:12:00,
2013-05-22 12:17:00,77.7,72.1,29.96,ESE,119,1.0,6.0,83,0.00,,,0.00,meteohub,2013-05-22 16:17:00,
2013-05-22 12:22:00,77.7,71.8,29.96,SE,127,0.0,6.0,82,0.00,,,0.00,meteohub,2013-05-22 16:22:00,
2013-05-22 12:27:00,78.6,72.7,29.96,SE,146,1.0,5.0,82,0.00,,,0.00,meteohub,2013-05-22 16:27:00,
2013-05-22 12:32:00,79.2,72.9,29.96,West,264,0.0,5.0,81,0.00,,,0.00,meteohub,2013-05-22 16:32:00,
2013-05-22 12:37:00,79.7,73.0,29.96,SSW,208,1.0,5.0,80,0.00,,,0.00,meteohub,2013-05-22 16:37:00,
2013-05-22 12:42:00,79.3,72.7,29.96,SSW,193,2.0,3.0,80,0.00,,,0.00,meteohub,2013-05-22 16:42:00,
2013-05-22 12:47:00,79.3,72.7,29.96,West,278,0.0,6.0,80,0.00,,,0.00,meteohub,2013-05-22 16:47:00,
2013-05-22 12:52:00,79.5,72.9,29.95,South,170,2.0,6.0,80,0.00,,,0.00,meteohub,2013-05-22 16:52:00,
2013-05-22 12:57:00,80.1,73.0,29.96,WSW,252,1.0,6.0,79,0.00,,,0.00,meteohub,2013-05-22 16:57:00,
2013-05-22 13:02:00,80.4,72.9,29.96,ESE,121,1.0,3.0,78,0.00,,,0.00,meteohub,2013-05-22 17:02:00,
2013-05-22 13:07:00,80.8,73.2,29.96,SSW,205,0.0,3.0,78,0.00,,,0.00,meteohub,2013-05-22 17:07:00,
2013-05-22 13:12:00,81.0,73.0,29.95,West,266,0.0,4.0,77,0.00,,,0.00,meteohub,2013-05-22 17:12:00,
2013-05-22 13:17:00,81.3,73.0,29.95,SW,219,1.0,4.0,76,0.00,,,0.00,meteohub,2013-05-22 17:17:00,
2013-05-22 13:22:00,81.5,73.2,29.95,ESE,103,3.0,4.0,76,0.00,,,0.00,meteohub,2013-05-22 17:22:00,
2013-05-22 13:27:00,81.9,73.6,29.95,ESE,104,1.0,5.0,76,0.00,,,0.00,meteohub,2013-05-22 17:27:00,
2013-05-22 13:32:00,82.2,73.9,29.95,SE,132,0.0,5.0,76,0.00,,,0.00,meteohub,2013-05-22 17:32:00,
2013-05-22 13:37:00,82.2,73.6,29.94,West,263,0.0,5.0,75,0.00,,,0.00,meteohub,2013-05-22 17:37:00,
2013-05-22 13:42:00,82.6,74.3,29.94,SSW,199,0.0,4.0,76,0.00,,,0.00,meteohub,2013-05-22 17:42:00,
2013-05-22 13:47:00,82.9,73.8,29.94,SE,140,2.0,4.0,74,0.00,,,0.00,meteohub,2013-05-22 17:47:00,
2013-05-22 13:52:00,82.9,73.8,29.94,SE,140,1.0,4.0,74,0.00,,,0.00,meteohub,2013-05-22 17:52:00,
2013-05-22 13:57:00,83.1,73.9,29.93,SW,214,2.0,7.0,74,0.00,,,0.00,meteohub,2013-05-22 17:57:00,
2013-05-22 14:02:00,83.1,73.6,29.93,SW,219,1.0,7.0,73,0.00,,,0.00,meteohub,2013-05-22 18:02:00,
2013-05-22 14:07:00,83.5,73.6,29.93,SSE,153,1.0,7.0,72,0.00,,,0.00,meteohub,2013-05-22 18:07:00,
2013-05-22 14:12:00,83.7,73.6,29.93,SW,214,1.0,5.0,72,0.00,,,0.00,meteohub,2013-05-22 18:12:00,
2013-05-22 14:17:00,83.7,73.2,29.93,SE,131,1.0,5.0,71,0.00,,,0.00,meteohub,2013-05-22 18:17:00,
2013-05-22 14:22:00,84.2,73.8,29.93,SSW,207,0.0,5.0,71,0.00,,,0.00,meteohub,2013-05-22 18:22:00,
2013-05-22 14:27:00,84.0,73.6,29.93,ESE,105,0.0,5.0,71,0.00,,,0.00,meteohub,2013-05-22 18:27:00,
2013-05-22 14:32:00,83.8,73.0,29.93,SSE,153,1.0,5.0,70,0.00,,,0.00,meteohub,2013-05-22 18:32:00,
2013-05-22 14:37:00,83.7,73.2,29.92,SSE,147,1.0,6.0,71,0.00,,,0.00,meteohub,2013-05-22 18:37:00,
2013-05-22 14:42:00,83.5,73.0,29.92,South,177,1.0,6.0,71,0.00,,,0.00,meteohub,2013-05-22 18:42:00,
2013-05-22 14:47:00,83.5,73.9,29.92,SE,130,0.0,6.0,73,0.00,,,0.00,meteohub,2013-05-22 18:47:00,
2013-05-22 14:52:00,83.8,73.8,29.91,SSW,212,2.0,6.0,72,0.00,,,0.00,meteohub,2013-05-22 18:52:00,
2013-05-22 14:57:00,84.4,73.0,29.91,ESE,119,6.0,6.0,69,0.00,,,0.00,meteohub,2013-05-22 18:57:00,
2013-05-22 15:02:00,84.6,73.2,29.91,ENE,75,2.0,7.0,69,0.00,,,0.00,meteohub,2013-05-22 19:02:00,
2013-05-22 15:07:00,84.7,73.0,29.91,SSE,150,1.0,7.0,68,0.00,,,0.00,meteohub,2013-05-22 19:07:00,
2013-05-22 15:12:00,84.9,72.3,29.91,SW,221,2.0,7.0,66,0.00,,,0.00,meteohub,2013-05-22 19:12:00,
2013-05-22 15:17:00,85.3,73.0,29.91,SSE,150,0.0,7.0,67,0.00,,,0.00,meteohub,2013-05-22 19:17:00,
2013-05-22 15:22:00,85.5,72.9,29.91,SSW,195,2.0,6.0,66,0.00,,,0.00,meteohub,2013-05-22 19:22:00,
2013-05-22 15:27:00,85.1,72.5,29.91,SSW,203,0.0,5.0,66,0.00,,,0.00,meteohub,2013-05-22 19:27:00,
2013-05-22 15:32:00,85.3,72.1,29.91,SE,144,0.0,5.0,65,0.00,,,0.00,meteohub,2013-05-22 19:32:00,
2013-05-22 15:37:00,85.8,73.2,29.91,West,281,2.0,6.0,66,0.00,,,0.00,meteohub,2013-05-22 19:37:00,
2013-05-22 15:42:00,86.4,72.7,29.91,South,176,1.0,6.0,64,0.00,,,0.00,meteohub,2013-05-22 19:42:00,
2013-05-22 15:47:00,86.4,72.3,29.91,SW,214,1.0,6.0,63,0.00,,,0.00,meteohub,2013-05-22 19:47:00,
2013-05-22 15:52:00,86.4,72.3,29.90,SSE,154,1.0,4.0,63,0.00,,,0.00,meteohub,2013-05-22 19:52:00,
2013-05-22 15:57:00,86.5,72.5,29.91,WSW,258,2.0,6.0,63,0.00,,,0.00,meteohub,2013-05-22 19:57:00,
2013-05-22 16:02:00,86.4,72.3,29.91,SSE,168,3.0,6.0,63,0.00,,,0.00,meteohub,2013-05-22 20:02:00,
2013-05-22 16:07:00,86.4,72.3,29.90,SSW,195,0.0,7.0,63,0.00,,,0.00,meteohub,2013-05-22 20:07:00,
2013-05-22 16:12:00,86.4,72.7,29.90,SW,215,2.0,7.0,64,0.00,,,0.00,meteohub,2013-05-22 20:12:00,
2013-05-22 16:17:00,86.4,72.7,29.90,WSW,243,1.0,7.0,64,0.00,,,0.00,meteohub,2013-05-22 20:17:00,
2013-05-22 16:22:00,86.5,72.9,29.90,SSW,211,2.0,5.0,64,0.00,,,0.00,meteohub,2013-05-22 20:22:00,
2013-05-22 16:27:00,86.4,72.3,29.90,SW,217,0.0,7.0,63,0.00,,,0.00,meteohub,2013-05-22 20:27:00,
2013-05-22 16:32:00,86.4,72.3,29.89,South,170,2.0,8.0,63,0.00,,,0.00,meteohub,2013-05-22 20:32:00,
2013-05-22 16:37:00,86.4,71.8,29.89,ESE,118,2.0,8.0,62,0.00,,,0.00,meteohub,2013-05-22 20:37:00,
2013-05-22 16:42:00,86.4,71.8,29.89,SSW,211,1.0,7.0,62,0.00,,,0.00,meteohub,2013-05-22 20:42:00,
2013-05-22 16:47:00,86.2,71.1,29.89,ESE,121,3.0,8.0,61,0.00,,,0.00,meteohub,2013-05-22 20:47:00,
2013-05-22 16:52:00,85.8,71.2,29.89,SSW,207,2.0,8.0,62,0.00,,,0.00,meteohub,2013-05-22 20:52:00,
2013-05-22 16:58:00,86.2,71.6,29.89,SE,139,2.0,8.0,62,0.00,,,0.00,meteohub,2013-05-22 20:58:00,
2013-05-22 17:03:00,86.4,71.2,29.89,South,184,1.0,8.0,61,0.00,,,0.00,meteohub,2013-05-22 21:03:00,
2013-05-22 17:08:00,86.5,72.0,29.88,SSE,155,1.0,7.0,62,0.00,,,0.00,meteohub,2013-05-22 21:08:00,
2013-05-22 17:13:00,86.5,70.5,29.88,ENE,77,2.0,7.0,59,0.00,,,0.00,meteohub,2013-05-22 21:13:00,
2013-05-22 17:18:00,86.4,71.2,29.88,SE,133,2.0,7.0,61,0.00,,,0.00,meteohub,2013-05-22 21:18:00,
2013-05-22 17:23:00,86.4,71.2,29.88,South,187,0.0,7.0,61,0.00,,,0.00,meteohub,2013-05-22 21:23:00,
2013-05-22 17:28:00,86.4,70.9,29.88,ESE,116,5.0,7.0,60,0.00,,,0.00,meteohub,2013-05-22 21:28:00,
2013-05-22 17:33:00,86.4,70.9,29.88,SW,217,2.0,7.0,60,0.00,,,0.00,meteohub,2013-05-22 21:33:00,
2013-05-22 17:38:00,86.4,71.2,29.88,South,184,0.0,7.0,61,0.00,,,0.00,meteohub,2013-05-22 21:38:00,
2013-05-22 17:43:00,86.4,70.3,29.88,SSW,204,1.0,7.0,59,0.00,,,0.00,meteohub,2013-05-22 21:43:00,
2013-05-22 17:48:00,86.2,70.7,29.88,SSE,152,3.0,5.0,60,0.00,,,0.00,meteohub,2013-05-22 21:48:00,
2013-05-22 17:53:00,86.2,70.7,29.88,South,183,1.0,6.0,60,0.00,,,0.00,meteohub,2013-05-22 21:53:00,
2013-05-22 17:58:00,86.2,70.2,29.88,SW,219,2.0,6.0,59,0.00,,,0.00,meteohub,2013-05-22 21:58:00,
2013-05-22 18:03:00,86.2,70.2,29.88,SSW,194,1.0,6.0,59,0.00,,,0.00,meteohub,2013-05-22 22:03:00,
2013-05-22 18:08:00,86.4,69.8,29.88,ESE,120,2.0,6.0,58,0.00,,,0.00,meteohub,2013-05-22 22:08:00,
2013-05-22 18:13:00,86.4,70.3,29.88,South,178,1.0,6.0,59,0.00,,,0.00,meteohub,2013-05-22 22:13:00,
2013-05-22 18:18:00,86.2,70.2,29.88,SSW,210,0.0,6.0,59,0.00,,,0.00,meteohub,2013-05-22 22:18:00,
2013-05-22 18:24:00,86.2,70.2,29.88,SW,221,0.0,6.0,59,0.00,,,0.00,meteohub,2013-05-22 22:24:00,
2013-05-22 18:29:00,85.8,70.9,29.88,SE,129,0.0,6.0,61,0.00,,,0.00,meteohub,2013-05-22 22:29:00,
2013-05-22 18:34:00,85.3,70.7,29.88,SW,233,1.0,7.0,62,0.00,,,0.00,meteohub,2013-05-22 22:34:00,
2013-05-22 18:39:00,84.6,70.5,29.88,SE,136,1.0,7.0,63,0.00,,,0.00,meteohub,2013-05-22 22:39:00,
2013-05-22 18:44:00,83.8,70.3,29.88,South,187,2.0,7.0,64,0.00,,,0.00,meteohub,2013-05-22 22:44:00,
2013-05-22 18:49:00,83.5,70.5,29.88,SW,235,1.0,9.0,65,0.00,,,0.00,meteohub,2013-05-22 22:49:00,
2013-05-22 18:54:00,83.1,70.5,29.89,SE,143,1.0,9.0,66,0.00,,,0.00,meteohub,2013-05-22 22:54:00,
2013-05-22 18:59:00,82.8,70.2,29.89,SSW,200,1.0,9.0,66,0.00,,,0.00,meteohub,2013-05-22 22:59:00,
2013-05-22 19:04:00,82.4,70.0,29.89,SSE,167,0.0,4.0,66,0.00,,,0.00,meteohub,2013-05-22 23:04:00,
2013-05-22 19:09:00,82.0,70.0,29.89,SW,217,2.0,5.0,67,0.00,,,0.00,meteohub,2013-05-22 23:09:00,
2013-05-22 19:14:00,81.7,70.2,29.90,SSW,210,2.0,5.0,68,0.00,,,0.00,meteohub,2013-05-22 23:14:00,
2013-05-22 19:19:00,81.3,70.2,29.90,SSW,213,0.0,4.0,69,0.00,,,0.00,meteohub,2013-05-22 23:19:00,
2013-05-22 19:24:00,81.0,69.8,29.90,SW,219,2.0,8.0,69,0.00,,,0.00,meteohub,2013-05-22 23:24:00,
2013-05-22 19:29:00,80.8,69.6,29.90,SW,231,1.0,8.0,69,0.00,,,0.00,meteohub,2013-05-22 23:29:00,
2013-05-22 19:34:00,80.4,69.3,29.90,SW,224,2.0,8.0,69,0.00,,,0.00,meteohub,2013-05-22 23:34:00,
2013-05-22 19:39:00,80.2,69.1,29.90,SSE,155,1.0,6.0,69,0.00,,,0.00,meteohub,2013-05-22 23:39:00,
2013-05-22 19:44:00,80.1,68.9,29.90,South,190,0.0,6.0,69,0.00,,,0.00,meteohub,2013-05-22 23:44:00,
2013-05-22 19:49:00,79.5,68.9,29.90,SSW,201,0.0,6.0,70,0.00,,,0.00,meteohub,2013-05-22 23:49:00,
2013-05-22 19:55:00,79.3,69.1,29.90,SE,124,1.0,4.0,71,0.00,,,0.00,meteohub,2013-05-22 23:55:00,
2013-05-22 20:00:00,79.0,69.3,29.90,SSE,167,0.0,3.0,72,0.00,,,0.00,meteohub,2013-05-23 00:00:00,
2013-05-22 20:05:00,79.0,69.3,29.90,SSW,203,0.0,3.0,72,0.00,,,0.00,meteohub,2013-05-23 00:05:00,
2013-05-22 20:10:00,78.6,69.3,29.90,SW,214,0.0,2.0,73,0.00,,,0.00,meteohub,2013-05-23 00:10:00,
2013-05-22 20:15:00,78.4,69.4,29.90,ESE,109,1.0,2.0,74,0.00,,,0.00,meteohub,2013-05-23 00:15:00,
2013-05-22 20:20:00,78.3,69.6,29.91,SE,141,0.0,3.0,75,0.00,,,0.00,meteohub,2013-05-23 00:20:00,
2013-05-22 20:25:00,78.1,70.0,29.91,SSE,167,0.0,3.0,76,0.00,,,0.00,meteohub,2013-05-23 00:25:00,
2013-05-22 20:30:00,78.1,70.7,29.91,ESE,114,2.0,3.0,78,0.00,,,0.00,meteohub,2013-05-23 00:30:00,
2013-05-22 20:35:00,78.1,71.1,29.91,ESE,108,4.0,4.0,79,0.00,,,0.00,meteohub,2013-05-23 00:35:00,
2013-05-22 20:40:00,78.1,71.4,29.92,South,174,1.0,4.0,80,0.00,,,0.00,meteohub,2013-05-23 00:40:00,
2013-05-22 20:45:00,78.1,71.4,29.92,SE,132,0.0,4.0,80,0.00,,,0.00,meteohub,2013-05-23 00:45:00,
2013-05-22 20:50:00,78.1,71.4,29.92,SSW,198,0.0,4.0,80,0.00,,,0.00,meteohub,2013-05-23 00:50:00,
2013-05-22 20:55:00,78.1,71.8,29.92,SSE,161,0.0,3.0,81,0.00,,,0.00,meteohub,2013-05-23 00:55:00,
2013-05-22 21:00:00,78.1,71.8,29.92,South,191,2.0,3.0,81,0.00,,,0.00,meteohub,2013-05-23 01:00:00,
2013-05-22 21:05:00,78.1,71.8,29.92,SE,132,0.0,4.0,81,0.00,,,0.00,meteohub,2013-05-23 01:05:00,
2013-05-22 21:10:00,78.1,71.8,29.92,SSW,199,0.0,7.0,81,0.00,,,0.00,meteohub,2013-05-23 01:10:00,
2013-05-22 21:15:00,77.7,71.4,29.92,SE,143,1.0,7.0,81,0.00,,,0.00,meteohub,2013-05-23 01:15:00,
2013-05-22 21:20:00,77.5,71.2,29.93,WNW,293,0.0,7.0,81,0.00,,,0.00,meteohub,2013-05-23 01:20:00,
2013-05-22 21:25:00,77.4,71.4,29.93,South,170,0.0,3.0,82,0.00,,,0.00,meteohub,2013-05-23 01:25:00,
2013-05-22 21:31:00,77.2,71.2,29.93,SW,222,0.0,3.0,82,0.00,,,0.00,meteohub,2013-05-23 01:31:00,
2013-05-22 21:36:00,77.0,71.1,29.93,SW,235,1.0,3.0,82,0.00,,,0.00,meteohub,2013-05-23 01:36:00,
2013-05-22 21:41:00,76.8,70.9,29.94,SW,236,0.0,9.0,82,0.00,,,0.00,meteohub,2013-05-23 01:41:00,
2013-05-22 21:46:00,76.6,70.7,29.94,WNW,294,0.0,9.0,82,0.00,,,0.00,meteohub,2013-05-23 01:46:00,
2013-05-22 21:51:00,76.6,70.7,29.94,SW,224,0.0,9.0,82,0.00,,,0.00,meteohub,2013-05-23 01:51:00,
2013-05-22 21:56:00,76.5,70.5,29.94,SW,215,0.0,4.0,82,0.00,,,0.00,meteohub,2013-05-23 01:56:00,
2013-05-22 22:01:00,76.5,70.9,29.95,South,186,1.0,4.0,83,0.00,,,0.00,meteohub,2013-05-23 02:01:00,
2013-05-22 22:06:00,76.3,70.7,29.95,SW,219,0.0,3.0,83,0.00,,,0.00,meteohub,2013-05-23 02:06:00,
2013-05-22 22:11:00,75.9,70.3,29.95,SW,219,0.0,2.0,83,0.00,,,0.00,meteohub,2013-05-23 02:11:00,
2013-05-22 22:16:00,75.7,70.5,29.95,SW,222,2.0,2.0,84,0.00,,,0.00,meteohub,2013-05-23 02:16:00,
2013-05-22 22:21:00,75.7,70.5,29.96,SW,226,1.0,3.0,84,0.00,,,0.00,meteohub,2013-05-23 02:21:00,
2013-05-22 22:26:00,75.6,70.3,29.96,SW,233,0.0,3.0,84,0.00,,,0.00,meteohub,2013-05-23 02:26:00,
2013-05-22 22:31:00,75.4,70.2,29.96,SW,233,0.0,3.0,84,0.00,,,0.00,meteohub,2013-05-23 02:31:00,
2013-05-22 22:36:00,75.4,70.2,29.95,SSW,200,0.0,1.0,84,0.00,,,0.00,meteohub,2013-05-23 02:36:00,
2013-05-22 22:41:00,75.2,70.3,29.95,SSE,165,1.0,1.0,85,0.00,,,0.00,meteohub,2013-05-23 02:41:00,
2013-05-22 22:46:00,75.0,70.2,29.95,SSW,210,0.0,1.0,85,0.00,,,0.00,meteohub,2013-05-23 02:46:00,
2013-05-22 22:51:00,74.8,70.0,29.95,SSW,201,0.0,2.0,85,0.00,,,0.00,meteohub,2013-05-23 02:51:00,
2013-05-22 22:57:00,74.8,70.3,29.95,SSW,208,0.0,2.0,86,0.00,,,0.00,meteohub,2013-05-23 02:57:00,
2013-05-22 23:02:00,74.7,70.2,29.95,SSE,158,1.0,2.0,86,0.00,,,0.00,meteohub,2013-05-23 03:02:00,
2013-05-22 23:07:00,74.5,70.0,29.94,SSE,156,0.0,2.0,86,0.00,,,0.00,meteohub,2013-05-23 03:07:00,
2013-05-22 23:12:00,74.5,70.0,29.94,SSW,203,0.0,2.0,86,0.00,,,0.00,meteohub,2013-05-23 03:12:00,
2013-05-22 23:17:00,74.5,70.0,29.95,SSW,198,0.0,2.0,86,0.00,,,0.00,meteohub,2013-05-23 03:17:00,
2013-05-22 23:22:00,74.5,70.0,29.95,West,277,0.0,2.0,86,0.00,,,0.00,meteohub,2013-05-23 03:22:00,
2013-05-22 23:27:00,74.7,70.2,29.95,West,278,1.0,2.0,86,0.00,,,0.00,meteohub,2013-05-23 03:27:00,
2013-05-22 23:32:00,74.7,70.2,29.96,WSW,246,0.0,2.0,86,0.00,,,0.00,meteohub,2013-05-23 03:32:00,
2013-05-22 23:37:00,74.7,70.2,29.95,WSW,252,0.0,2.0,86,0.00,,,0.00,meteohub,2013-05-23 03:37:00,
2013-05-22 23:42:00,74.7,70.2,29.95,West,269,0.0,2.0,86,0.00,,,0.00,meteohub,2013-05-23 03:42:00,
2013-05-22 23:47:00,74.7,70.2,29.95,West,269,0.0,2.0,86,0.00,,,0.00,meteohub,2013-05-23 03:47:00,
2013-05-22 23:52:00,74.5,70.0,29.95,West,268,0.0,1.0,86,0.00,,,0.00,meteohub,2013-05-23 03:52:00,
2013-05-22 23:57:00,74.5,70.0,29.95,West,268,0.0,0.0,86,0.00,,,0.00,meteohub,2013-05-23 03:57:00,